最新 今天 统计 地图 地球 设置 关于

今天收到的 9A3XK 336 APRS数据包 下载轨迹 aprs.fi hamclub hellocq 本站 本站轨迹

时间msgraw packet
2019-11-21 11:54:229A3XK>APMI06,WIDE1-1,qAR,E79XZA-10:T#110,050,048,011,23854,083,00000000
2019-11-21 11:53:219A3XK>APMI06,TCPIP*,qAC,APRSFI-I1:T#109,050,049,011,23853,083,00000000
2019-11-21 11:52:479A3XK>BEACON,WIDE1-1,qAR,E79XZA-10:Power 9W Gain 3dB Height 240m Ant omni
2019-11-21 11:48:219A3XK>APMI06,TCPIP*,qAC,APRSFI-I1:T#108,068,049,013,23853,083,00000000
2019-11-21 11:43:229A3XK>APMI06,TCPIP*,qAC,APRSFI-I1:T#107,074,049,017,23857,083,00000000
2019-11-21 11:42:469A3XK>BEACON,TCPIP*,qAC,APRSFI-I1:Power 9W Gain 3dB Height 240m Ant omni
2019-11-21 11:42:379A3XK>BEACON,WIDE1-1,qAR,E79XZA-10:CRLNet.108 - SysOp 9a3XK & 9a7kxp-Internet via DJWIRELES http://djw.hr/
2019-11-21 11:42:319A3XK>APMI06,TCPIP*,qAC,APRSFI-I1:>http://crlnet.it - WX3IN1 Plus 2.0 - v1.13 - 2.6C - 11.9V
2019-11-21 11:42:26!4522.10N/01814.60EIiGate&W2 DJAKOVO CRLNet.108 http://djakovo.hr9A3XK>APMI06,TCPIP*,qAC,APRSFI-I1:!4522.10N/01814.60EIiGate&W2 DJAKOVO CRLNet.108 http://djakovo.hr
2019-11-21 11:38:229A3XK>APMI06,TCPIP*,qAC,APRSFI-I1:T#106,083,049,019,23863,083,00000000
2019-11-21 11:33:229A3XK>APMI06,TCPIP*,qAC,APRSFI-I1:T#105,094,050,027,23866,083,00000000
2019-11-21 11:32:479A3XK>BEACON,WIDE1-1,qAR,E79XZA-10:Power 9W Gain 3dB Height 240m Ant omni
2019-11-21 11:28:219A3XK>APMI06,TCPIP*,qAC,APRSFI-I1:T#104,087,047,027,23867,083,00000000
2019-11-21 11:27:29!4522.10N/01814.60EIiGate&W2 DJAKOVO CRLNet.108 http://djakovo.hr9A3XK>APMI06,WIDE2-2,qAR,E79XZA-10:!4522.10N/01814.60EIiGate&W2 DJAKOVO CRLNet.108 http://djakovo.hr
2019-11-21 11:25:239A3XK>APMI06,WIDE1-1,qAR,E79XZA-10:T#103,084,046,024,23858,083,00000000
2019-11-21 11:23:229A3XK>APMI06,TCPIP*,qAC,APRSFI-I1:T#102,079,046,023,23860,083,00000000
2019-11-21 11:22:479A3XK>BEACON,WIDE1-1,qAR,E79XZA-10:Power 9W Gain 3dB Height 240m Ant omni
2019-11-21 11:18:229A3XK>APMI06,TCPIP*,qAC,APRSFI-I1:T#101,063,045,015,23851,083,00000000
2019-11-21 11:13:219A3XK>APMI06,TCPIP*,qAC,APRSFI-I1:T#100,054,044,010,23848,083,00000000
2019-11-21 11:12:469A3XK>BEACON,TCPIP*,qAC,APRSFI-I1:Power 9W Gain 3dB Height 240m Ant omni
2019-11-21 11:12:379A3XK>BEACON,WIDE1-1,qAR,E79XZA-10:CRLNet.108 - SysOp 9a3XK & 9a7kxp-Internet via DJWIRELES http://djw.hr/
2019-11-21 11:12:329A3XK>APMI06,TCPIP*,qAC,APRSFI-I1:>http://crlnet.it - WX3IN1 Plus 2.0 - v1.13 - 2.6C - 11.9V
2019-11-21 11:12:26!4522.10N/01814.60EIiGate&W2 DJAKOVO CRLNet.108 http://djakovo.hr9A3XK>APMI06,TCPIP*,qAC,APRSFI-I1:!4522.10N/01814.60EIiGate&W2 DJAKOVO CRLNet.108 http://djakovo.hr
2019-11-21 11:08:219A3XK>APMI06,TCPIP*,qAC,APRSFI-I1:T#099,077,045,011,23851,083,00000000
2019-11-21 11:03:229A3XK>APMI06,TCPIP*,qAC,APRSFI-I1:T#098,093,046,015,23859,083,00000000
2019-11-21 11:02:479A3XK>BEACON,WIDE1-1,qAR,E79XZA-10:Power 9W Gain 3dB Height 240m Ant omni
2019-11-21 11:02:28!4522.10N/01814.60EIiGate&W2 DJAKOVO CRLNet.108 http://djakovo.hr9A3XK>APMI06,WIDE2-2,qAR,E79XZA-10:!4522.10N/01814.60EIiGate&W2 DJAKOVO CRLNet.108 http://djakovo.hr
2019-11-21 10:58:229A3XK>APMI06,TCPIP*,qAC,APRSFI-I1:T#097,069,045,014,23871,083,00000000
2019-11-21 10:56:239A3XK>APMI06,YU0XFG-1*,WIDE1*,qAR,HG8PBJ-10:T#096,065,044,013,23874,083,00000000
2019-11-21 10:52:479A3XK>BEACON,WIDE1-1,qAR,E79XZA-10:Power 9W Gain 3dB Height 240m Ant omni
2019-11-21 10:48:219A3XK>APMI06,TCPIP*,qAC,APRSFI-I1:T#094,072,044,012,23883,083,00000000
2019-11-21 10:43:219A3XK>APMI06,TCPIP*,qAC,APRSFI-I1:T#093,086,045,021,23892,083,00000000
2019-11-21 10:42:479A3XK>BEACON,TCPIP*,qAC,APRSFI-I1:Power 9W Gain 3dB Height 240m Ant omni
2019-11-21 10:42:379A3XK>BEACON,WIDE1-1,qAR,E79XZA-10:CRLNet.108 - SysOp 9a3XK & 9a7kxp-Internet via DJWIRELES http://djw.hr/
2019-11-21 10:42:329A3XK>APMI06,TCPIP*,qAC,APRSFI-I1:>http://crlnet.it - WX3IN1 Plus 2.0 - v1.13 - 2.6C - 11.9V
2019-11-21 10:42:27!4522.10N/01814.60EIiGate&W2 DJAKOVO CRLNet.108 http://djakovo.hr9A3XK>APMI06,TCPIP*,qAC,APRSFI-I1:!4522.10N/01814.60EIiGate&W2 DJAKOVO CRLNet.108 http://djakovo.hr
2019-11-21 10:38:229A3XK>APMI06,TCPIP*,qAC,APRSFI-I1:T#092,059,043,013,23897,083,00000000
2019-11-21 10:37:28!4522.10N/01814.60EIiGate&W2 DJAKOVO CRLNet.108 http://djakovo.hr9A3XK>APMI06,WIDE2-2,qAR,E79XZA-10:!4522.10N/01814.60EIiGate&W2 DJAKOVO CRLNet.108 http://djakovo.hr
2019-11-21 10:33:229A3XK>APMI06,TCPIP*,qAC,APRSFI-I1:T#091,052,042,008,23896,083,00000000
2019-11-21 10:32:479A3XK>BEACON,WIDE1-1,qAR,E79XZA-10:Power 9W Gain 3dB Height 240m Ant omni
2019-11-21 10:28:229A3XK>APMI06,TCPIP*,qAC,APRSFI-I1:T#090,071,043,012,23903,083,00000000
2019-11-21 10:27:229A3XK>APMI06,WIDE1-1,qAR,E79XZA-10:T#089,062,042,010,23905,083,00000000
2019-11-21 10:23:219A3XK>APMI06,TCPIP*,qAC,APRSFI-I1:T#088,061,042,009,23911,083,00000000
2019-11-21 10:22:479A3XK>BEACON,WIDE1-1,qAR,E79XZA-10:Power 9W Gain 3dB Height 240m Ant omni
2019-11-21 10:18:219A3XK>APMI06,TCPIP*,qAC,APRSFI-I1:T#087,066,043,012,23919,083,00000000
2019-11-21 10:13:229A3XK>APMI06,TCPIP*,qAC,APRSFI-I1:T#086,070,042,012,23924,083,00000000
2019-11-21 10:12:479A3XK>BEACON,TCPIP*,qAC,APRSFI-I1:Power 9W Gain 3dB Height 240m Ant omni
2019-11-21 10:12:379A3XK>BEACON,WIDE1-1,qAR,E79XZA-10:CRLNet.108 - SysOp 9a3XK & 9a7kxp-Internet via DJWIRELES http://djw.hr/
2019-11-21 10:12:329A3XK>APMI06,TCPIP*,qAC,APRSFI-I1:>http://crlnet.it - WX3IN1 Plus 2.0 - v1.13 - 2.6C - 11.9V
2019-11-21 10:12:27!4522.10N/01814.60EIiGate&W2 DJAKOVO CRLNet.108 http://djakovo.hr9A3XK>APMI06,TCPIP*,qAC,APRSFI-I1:!4522.10N/01814.60EIiGate&W2 DJAKOVO CRLNet.108 http://djakovo.hr
2019-11-21 10:08:229A3XK>APMI06,TCPIP*,qAC,APRSFI-I1:T#085,079,042,014,23931,083,00000000
2019-11-21 10:03:229A3XK>APMI06,TCPIP*,qAC,APRSFI-I1:T#084,071,040,014,23943,083,00000000
2019-11-21 10:02:479A3XK>BEACON,WIDE1-1,qAR,E79XZA-10:Power 9W Gain 3dB Height 240m Ant omni
2019-11-21 09:58:239A3XK>APMI06,TCPIP*,qAC,APRSFI-I1:T#083,064,039,013,23946,083,00000000
2019-11-21 09:58:229A3XK>APMI06,WIDE1-1,qAR,E79XZA-10:T#082,064,039,013,23946,083,00000000
2019-11-21 09:53:229A3XK>APMI06,TCPIP*,qAC,APRSFI-I1:T#081,065,040,014,23953,083,00000000
2019-11-21 09:48:219A3XK>APMI06,TCPIP*,qAC,APRSFI-I1:T#080,063,040,015,23955,083,00000000
2019-11-21 09:47:28!4522.10N/01814.60EIiGate&W2 DJAKOVO CRLNet.108 http://djakovo.hr9A3XK>APMI06,WIDE2-2,qAR,E79XZA-10:!4522.10N/01814.60EIiGate&W2 DJAKOVO CRLNet.108 http://djakovo.hr
2019-11-21 09:43:219A3XK>APMI06,TCPIP*,qAC,APRSFI-I1:T#079,058,040,010,23956,083,00000000
2019-11-21 09:42:469A3XK>BEACON,TCPIP*,qAC,APRSFI-I1:Power 9W Gain 3dB Height 240m Ant omni
2019-11-21 09:42:379A3XK>BEACON,WIDE1-1,qAR,E79XZA-10:CRLNet.108 - SysOp 9a3XK & 9a7kxp-Internet via DJWIRELES http://djw.hr/
2019-11-21 09:42:319A3XK>APMI06,TCPIP*,qAC,APRSFI-I1:>http://crlnet.it - WX3IN1 Plus 2.0 - v1.13 - 2.6C - 11.9V
2019-11-21 09:42:26!4522.10N/01814.60EIiGate&W2 DJAKOVO CRLNet.108 http://djakovo.hr9A3XK>APMI06,TCPIP*,qAC,APRSFI-I1:!4522.10N/01814.60EIiGate&W2 DJAKOVO CRLNet.108 http://djakovo.hr
2019-11-21 09:38:219A3XK>APMI06,TCPIP*,qAC,APRSFI-I1:T#078,056,039,008,23959,083,00000000
2019-11-21 09:33:229A3XK>APMI06,TCPIP*,qAC,APRSFI-I1:T#077,058,039,011,23969,083,00000000
2019-11-21 09:32:479A3XK>BEACON,WIDE1-1,qAR,E79XZA-10:Power 9W Gain 3dB Height 240m Ant omni
2019-11-21 09:29:229A3XK>APMI06,WIDE1-1,qAR,E79XZA-10:T#076,067,041,015,23977,083,00000000
2019-11-21 09:28:219A3XK>APMI06,TCPIP*,qAC,APRSFI-I1:T#075,067,041,014,23976,083,00000000
2019-11-21 09:23:229A3XK>APMI06,TCPIP*,qAC,APRSFI-I1:T#074,062,041,012,23980,083,00000000
2019-11-21 09:22:479A3XK>BEACON,WIDE1-1,qAR,E79XZA-10:Power 9W Gain 3dB Height 240m Ant omni
2019-11-21 09:22:28!4522.10N/01814.60EIiGate&W2 DJAKOVO CRLNet.108 http://djakovo.hr9A3XK>APMI06,WIDE2-2,qAR,E79XZA-10:!4522.10N/01814.60EIiGate&W2 DJAKOVO CRLNet.108 http://djakovo.hr
2019-11-21 09:18:219A3XK>APMI06,TCPIP*,qAC,APRSFI-I1:T#073,055,041,010,23982,083,00000000
2019-11-21 09:13:229A3XK>APMI06,TCPIP*,qAC,APRSFI-I1:T#072,052,040,010,23992,083,00000000
2019-11-21 09:12:469A3XK>BEACON,TCPIP*,qAC,APRSFI-I1:Power 9W Gain 3dB Height 240m Ant omni
2019-11-21 09:12:379A3XK>BEACON,WIDE1-1,qAR,E79XZA-10:CRLNet.108 - SysOp 9a3XK & 9a7kxp-Internet via DJWIRELES http://djw.hr/
2019-11-21 09:12:329A3XK>APMI06,TCPIP*,qAC,APRSFI-I1:>http://crlnet.it - WX3IN1 Plus 2.0 - v1.13 - 2.6C - 11.9V
2019-11-21 09:12:27!4522.10N/01814.60EIiGate&W2 DJAKOVO CRLNet.108 http://djakovo.hr9A3XK>APMI06,TCPIP*,qAC,APRSFI-I1:!4522.10N/01814.60EIiGate&W2 DJAKOVO CRLNet.108 http://djakovo.hr
2019-11-21 09:08:219A3XK>APMI06,TCPIP*,qAC,APRSFI-I1:T#071,050,041,006,23995,083,00000000
2019-11-21 09:03:229A3XK>APMI06,TCPIP*,qAC,APRSFI-I1:T#070,074,043,013,24002,083,00000000
2019-11-21 09:02:479A3XK>BEACON,WIDE1-1,qAR,E79XZA-10:Power 9W Gain 3dB Height 240m Ant omni
2019-11-21 09:00:229A3XK>APMI06,WIDE1-1,qAR,E79XZA-10:T#069,082,044,017,24012,083,00000000
2019-11-21 08:58:219A3XK>APMI06,TCPIP*,qAC,APRSFI-I1:T#068,074,043,016,24014,083,00000000
2019-11-21 08:57:27!4522.10N/01814.60EIiGate&W2 DJAKOVO CRLNet.108 http://djakovo.hr9A3XK>APMI06,WIDE2-2,qAR,E79XZA-10:!4522.10N/01814.60EIiGate&W2 DJAKOVO CRLNet.108 http://djakovo.hr
2019-11-21 08:53:219A3XK>APMI06,TCPIP*,qAC,APRSFI-I1:T#067,061,042,013,24018,083,00000000
2019-11-21 08:52:479A3XK>BEACON,WIDE1-1,qAR,E79XZA-10:Power 9W Gain 3dB Height 240m Ant omni
2019-11-21 08:48:229A3XK>APMI06,TCPIP*,qAC,APRSFI-I1:T#066,063,042,011,24020,083,00000000
2019-11-21 08:43:229A3XK>APMI06,TCPIP*,qAC,APRSFI-I1:T#065,050,041,006,24023,083,00000000
2019-11-21 08:42:479A3XK>BEACON,TCPIP*,qAC,APRSFI-I1:Power 9W Gain 3dB Height 240m Ant omni
2019-11-21 08:42:379A3XK>BEACON,WIDE1-1,qAR,E79XZA-10:CRLNet.108 - SysOp 9a3XK & 9a7kxp-Internet via DJWIRELES http://djw.hr/
2019-11-21 08:42:329A3XK>APMI06,TCPIP*,qAC,APRSFI-I1:>http://crlnet.it - WX3IN1 Plus 2.0 - v1.13 - 2.6C - 11.9V
2019-11-21 08:42:27!4522.10N/01814.60EIiGate&W2 DJAKOVO CRLNet.108 http://djakovo.hr9A3XK>APMI06,TCPIP*,qAC,APRSFI-I1:!4522.10N/01814.60EIiGate&W2 DJAKOVO CRLNet.108 http://djakovo.hr
2019-11-21 08:38:229A3XK>APMI06,TCPIP*,qAC,APRSFI-I1:T#064,077,043,018,24031,083,00000000
2019-11-21 08:33:219A3XK>APMI06,TCPIP*,qAC,APRSFI-I1:T#063,075,043,019,24040,083,00000000
2019-11-21 08:32:479A3XK>BEACON,WIDE1-1,qAR,E79XZA-10:Power 9W Gain 3dB Height 240m Ant omni
2019-11-21 08:32:27!4522.10N/01814.60EIiGate&W2 DJAKOVO CRLNet.108 http://djakovo.hr9A3XK>APMI06,WIDE2-2,qAR,E79XZA-10:!4522.10N/01814.60EIiGate&W2 DJAKOVO CRLNet.108 http://djakovo.hr
2019-11-21 08:31:259A3XK>APMI06,YU0XFG-1*,WIDE1*,qAR,HG8PBJ-10:T#062,062,042,013,24039,083,00000000
2019-11-21 08:28:229A3XK>APMI06,TCPIP*,qAC,APRSFI-I1:T#061,064,042,010,24034,083,00000000
2019-11-21 08:23:219A3XK>APMI06,TCPIP*,qAC,APRSFI-I1:T#060,054,043,006,24040,083,00000000
2019-11-21 08:18:229A3XK>APMI06,TCPIP*,qAC,APRSFI-I1:T#059,061,043,012,24051,083,00000000
2019-11-21 08:13:229A3XK>APMI06,TCPIP*,qAC,APRSFI-I1:T#058,077,044,021,24057,083,00000000
2019-11-21 08:13:149A3XK>APMI06,WIDE1-1,qAR,E79XZA-10::9A3XK :BITS.11111111,DJAKOVO 5' Stats.
2019-11-21 08:13:139A3XK>APMI06,WIDE1-1,qAR,E79XZA-10::9A3XK :EQNS.0,1,0,0,10,0,0,1,0,0,0.001,0,0,1,0
2019-11-21 08:13:139A3XK>APMI06,WIDE1-1,qAR,E79XZA-10::9A3XK :UNIT.Pkt,Pkt,Pkt,Pcnt,Pcnt,On,On,On,On,Hi,Hi,Hi,Hi
2019-11-21 08:13:129A3XK>APMI06,WIDE1-1,qAR,E79XZA-10::9A3XK :PARM.Rx10m,Rx1h,Dg10m,DgR,Eff,O1,O2,O3,O4,I1,I2,I3,I4
2019-11-21 08:12:479A3XK>BEACON,TCPIP*,qAC,APRSFI-I1:Power 9W Gain 3dB Height 240m Ant omni
2019-11-21 08:12:379A3XK>BEACON,WIDE1-1,qAR,E79XZA-10:CRLNet.108 - SysOp 9a3XK & 9a7kxp-Internet via DJWIRELES http://djw.hr/
2019-11-21 08:12:329A3XK>APMI06,TCPIP*,qAC,APRSFI-I1:>http://crlnet.it - WX3IN1 Plus 2.0 - v1.13 - 2.7C - 11.9V
2019-11-21 08:12:27!4522.10N/01814.60EIiGate&W2 DJAKOVO CRLNet.108 http://djakovo.hr9A3XK>APMI06,TCPIP*,qAC,APRSFI-I1:!4522.10N/01814.60EIiGate&W2 DJAKOVO CRLNet.108 http://djakovo.hr
2019-11-21 08:08:229A3XK>APMI06,TCPIP*,qAC,APRSFI-I1:T#057,069,044,015,24061,083,00000000
2019-11-21 08:07:27!4522.10N/01814.60EIiGate&W2 DJAKOVO CRLNet.108 http://djakovo.hr9A3XK>APMI06,WIDE2-2,qAR,E79XZA-10:!4522.10N/01814.60EIiGate&W2 DJAKOVO CRLNet.108 http://djakovo.hr
2019-11-21 08:03:229A3XK>APMI06,TCPIP*,qAC,APRSFI-I1:T#056,060,045,007,24055,083,00000000
2019-11-21 08:02:479A3XK>BEACON,WIDE1-1,qAR,E79XZA-10:Power 9W Gain 3dB Height 240m Ant omni
2019-11-21 08:02:229A3XK>APMI06,WIDE1-1,qAR,E79XZA-10:T#055,057,044,007,24058,083,00000000
2019-11-21 07:58:229A3XK>APMI06,TCPIP*,qAC,APRSFI-I1:T#054,060,045,009,24064,083,00000000
2019-11-21 07:53:229A3XK>APMI06,TCPIP*,qAC,APRSFI-I1:T#053,058,045,010,24075,083,00000000
2019-11-21 07:52:479A3XK>BEACON,WIDE1-1,qAR,E79XZA-10:Power 9W Gain 3dB Height 240m Ant omni
2019-11-21 07:48:229A3XK>APMI06,TCPIP*,qAC,APRSFI-I1:T#052,076,046,018,24079,083,00000000
2019-11-21 07:43:229A3XK>APMI06,TCPIP*,qAC,APRSFI-I1:T#051,073,046,018,24087,083,00000000
2019-11-21 07:42:479A3XK>BEACON,TCPIP*,qAC,APRSFI-I1:Power 9W Gain 3dB Height 240m Ant omni
2019-11-21 07:42:379A3XK>BEACON,WIDE1-1,qAR,E79XZA-10:CRLNet.108 - SysOp 9a3XK & 9a7kxp-Internet via DJWIRELES http://djw.hr/
2019-11-21 07:42:329A3XK>APMI06,TCPIP*,qAC,APRSFI-I1:>http://crlnet.it - WX3IN1 Plus 2.0 - v1.13 - 2.7C - 11.9V
2019-11-21 07:42:26!4522.10N/01814.60EIiGate&W2 DJAKOVO CRLNet.108 http://djakovo.hr9A3XK>APMI06,TCPIP*,qAC,APRSFI-I1:!4522.10N/01814.60EIiGate&W2 DJAKOVO CRLNet.108 http://djakovo.hr
2019-11-21 07:38:229A3XK>APMI06,TCPIP*,qAC,APRSFI-I1:T#050,066,045,009,24080,083,00000000
2019-11-21 07:33:229A3XK>APMI06,WIDE1-1,qAR,E79XZA-10:T#048,073,046,014,24092,083,00000000
2019-11-21 07:33:229A3XK>APMI06,TCPIP*,qAC,APRSFI-I1:T#049,073,046,014,24092,083,00000000
2019-11-21 07:32:479A3XK>BEACON,WIDE1-1,qAR,E79XZA-10:Power 9W Gain 3dB Height 240m Ant omni
2019-11-21 07:28:219A3XK>APMI06,TCPIP*,qAC,APRSFI-I1:T#047,071,045,017,24102,083,00000000
2019-11-21 07:23:219A3XK>APMI06,TCPIP*,qAC,APRSFI-I1:T#046,070,045,016,24106,083,00000000
2019-11-21 07:22:479A3XK>BEACON,WIDE1-1,qAR,E79XZA-10:Power 9W Gain 3dB Height 240m Ant omni
2019-11-21 07:18:229A3XK>APMI06,TCPIP*,qAC,APRSFI-I1:T#045,076,045,015,24107,083,00000000
2019-11-21 07:17:27!4522.10N/01814.60EIiGate&W2 DJAKOVO CRLNet.108 http://djakovo.hr9A3XK>APMI06,WIDE2-2,qAR,E79XZA-10:!4522.10N/01814.60EIiGate&W2 DJAKOVO CRLNet.108 http://djakovo.hr
2019-11-21 07:13:219A3XK>APMI06,TCPIP*,qAC,APRSFI-I1:T#044,081,044,016,24112,083,00000000
2019-11-21 07:12:479A3XK>BEACON,TCPIP*,qAC,APRSFI-I1:Power 9W Gain 3dB Height 240m Ant omni
2019-11-21 07:12:379A3XK>BEACON,WIDE1-1,qAR,E79XZA-10:CRLNet.108 - SysOp 9a3XK & 9a7kxp-Internet via DJWIRELES http://djw.hr/
2019-11-21 07:12:319A3XK>APMI06,TCPIP*,qAC,APRSFI-I1:>http://crlnet.it - WX3IN1 Plus 2.0 - v1.13 - 2.7C - 11.9V
2019-11-21 07:12:27!4522.10N/01814.60EIiGate&W2 DJAKOVO CRLNet.108 http://djakovo.hr9A3XK>APMI06,TCPIP*,qAC,APRSFI-I1:!4522.10N/01814.60EIiGate&W2 DJAKOVO CRLNet.108 http://djakovo.hr
2019-11-21 07:08:219A3XK>APMI06,TCPIP*,qAC,APRSFI-I1:T#043,069,043,012,24116,083,00000000
2019-11-21 07:04:229A3XK>APMI06,WIDE1-1,qAR,E79XZA-10:T#042,062,043,007,24119,083,00000000
2019-11-21 07:03:229A3XK>APMI06,TCPIP*,qAC,APRSFI-I1:T#041,065,043,009,24125,083,00000000
2019-11-21 07:02:479A3XK>BEACON,WIDE1-1,qAR,E79XZA-10:Power 9W Gain 3dB Height 240m Ant omni
2019-11-21 06:58:229A3XK>APMI06,TCPIP*,qAC,APRSFI-I1:T#040,066,043,014,24134,083,00000000
2019-11-21 06:53:229A3XK>APMI06,TCPIP*,qAC,APRSFI-I1:T#039,073,044,022,24147,083,00000000
2019-11-21 06:52:479A3XK>BEACON,WIDE1-1,qAR,E79XZA-10:Power 9W Gain 3dB Height 240m Ant omni
2019-11-21 06:52:27!4522.10N/01814.60EIiGate&W2 DJAKOVO CRLNet.108 http://djakovo.hr9A3XK>APMI06,WIDE2-2,qAR,E79XZA-10:!4522.10N/01814.60EIiGate&W2 DJAKOVO CRLNet.108 http://djakovo.hr
2019-11-21 06:48:219A3XK>APMI06,TCPIP*,qAC,APRSFI-I1:T#038,067,042,013,24143,083,00000000
2019-11-21 06:43:219A3XK>APMI06,TCPIP*,qAC,APRSFI-I1:T#037,070,042,011,24138,083,00000000
2019-11-21 06:42:479A3XK>BEACON,TCPIP*,qAC,APRSFI-I1:Power 9W Gain 3dB Height 240m Ant omni
2019-11-21 06:42:379A3XK>BEACON,WIDE1-1,qAR,E79XZA-10:CRLNet.108 - SysOp 9a3XK & 9a7kxp-Internet via DJWIRELES http://djw.hr/
2019-11-21 06:42:329A3XK>APMI06,TCPIP*,qAC,APRSFI-I1:>http://crlnet.it - WX3IN1 Plus 2.0 - v1.13 - 2.7C - 11.9V
2019-11-21 06:42:27!4522.10N/01814.60EIiGate&W2 DJAKOVO CRLNet.108 http://djakovo.hr9A3XK>APMI06,TCPIP*,qAC,APRSFI-I1:!4522.10N/01814.60EIiGate&W2 DJAKOVO CRLNet.108 http://djakovo.hr
2019-11-21 06:38:229A3XK>APMI06,TCPIP*,qAC,APRSFI-I1:T#036,066,042,010,24151,083,00000000
2019-11-21 06:35:229A3XK>APMI06,WIDE1-1,qAR,E79XZA-10:T#035,070,043,012,24153,083,00000000
2019-11-21 06:33:229A3XK>APMI06,TCPIP*,qAC,APRSFI-I1:T#034,070,043,015,24158,083,00000000
2019-11-21 06:32:479A3XK>BEACON,WIDE1-1,qAR,E79XZA-10:Power 9W Gain 3dB Height 240m Ant omni
2019-11-21 06:28:229A3XK>APMI06,TCPIP*,qAC,APRSFI-I1:T#033,076,044,017,24169,083,00000000
2019-11-21 06:27:27!4522.10N/01814.60EIiGate&W2 DJAKOVO CRLNet.108 http://djakovo.hr9A3XK>APMI06,WIDE2-2,qAR,E79XZA-10:!4522.10N/01814.60EIiGate&W2 DJAKOVO CRLNet.108 http://djakovo.hr
2019-11-21 06:23:229A3XK>APMI06,TCPIP*,qAC,APRSFI-I1:T#032,060,044,009,24167,083,00000000
2019-11-21 06:22:489A3XK>BEACON,WIDE1-1,qAR,E79XZA-10:Power 9W Gain 3dB Height 240m Ant omni
2019-11-21 06:18:229A3XK>APMI06,TCPIP*,qAC,APRSFI-I1:T#031,058,044,009,24176,083,00000000
2019-11-21 06:13:229A3XK>APMI06,TCPIP*,qAC,APRSFI-I1:T#030,070,043,019,24183,083,00000000
2019-11-21 06:12:479A3XK>BEACON,TCPIP*,qAC,APRSFI-I1:Power 9W Gain 3dB Height 240m Ant omni
2019-11-21 06:12:379A3XK>BEACON,WIDE1-1,qAR,E79XZA-10:CRLNet.108 - SysOp 9a3XK & 9a7kxp-Internet via DJWIRELES http://djw.hr/
2019-11-21 06:12:329A3XK>APMI06,TCPIP*,qAC,APRSFI-I1:>http://crlnet.it - WX3IN1 Plus 2.0 - v1.13 - 2.7C - 11.9V
2019-11-21 06:12:27!4522.10N/01814.60EIiGate&W2 DJAKOVO CRLNet.108 http://djakovo.hr9A3XK>APMI06,TCPIP*,qAC,APRSFI-I1:!4522.10N/01814.60EIiGate&W2 DJAKOVO CRLNet.108 http://djakovo.hr
2019-11-21 06:08:229A3XK>APMI06,TCPIP*,qAC,APRSFI-I1:T#029,070,044,019,24192,083,00000000
2019-11-21 06:03:229A3XK>APMI06,TCPIP*,qAC,APRSFI-I1:T#027,069,045,012,24183,083,00000000
2019-11-21 06:02:489A3XK>BEACON,WIDE1-1,qAR,E79XZA-10:Power 9W Gain 3dB Height 240m Ant omni
2019-11-21 06:02:28!4522.10N/01814.60EIiGate&W2 DJAKOVO CRLNet.108 http://djakovo.hr9A3XK>APMI06,WIDE2-2,qAR,E79XZA-10:!4522.10N/01814.60EIiGate&W2 DJAKOVO CRLNet.108 http://djakovo.hr
2019-11-21 05:58:229A3XK>APMI06,TCPIP*,qAC,APRSFI-I1:T#026,065,045,012,24188,083,00000000
2019-11-21 05:53:229A3XK>APMI06,TCPIP*,qAC,APRSFI-I1:T#025,061,045,012,24198,083,00000000
2019-11-21 05:52:489A3XK>BEACON,WIDE1-1,qAR,E79XZA-10:Power 9W Gain 3dB Height 240m Ant omni
2019-11-21 05:48:229A3XK>APMI06,TCPIP*,qAC,APRSFI-I1:T#024,066,045,010,24200,083,00000000
2019-11-21 05:43:229A3XK>APMI06,TCPIP*,qAC,APRSFI-I1:T#023,080,044,019,24206,083,00000000
2019-11-21 05:42:479A3XK>BEACON,TCPIP*,qAC,APRSFI-I1:Power 9W Gain 3dB Height 240m Ant omni
2019-11-21 05:42:389A3XK>BEACON,WIDE1-1,qAR,E79XZA-10:CRLNet.108 - SysOp 9a3XK & 9a7kxp-Internet via DJWIRELES http://djw.hr/
2019-11-21 05:42:329A3XK>APMI06,TCPIP*,qAC,APRSFI-I1:>http://crlnet.it - WX3IN1 Plus 2.0 - v1.13 - 2.8C - 11.9V
2019-11-21 05:42:27!4522.10N/01814.60EIiGate&W2 DJAKOVO CRLNet.108 http://djakovo.hr9A3XK>APMI06,TCPIP*,qAC,APRSFI-I1:!4522.10N/01814.60EIiGate&W2 DJAKOVO CRLNet.108 http://djakovo.hr
2019-11-21 05:38:229A3XK>APMI06,TCPIP*,qAC,APRSFI-I1:T#022,083,046,017,24218,083,00000000
2019-11-21 05:37:27!4522.10N/01814.60EIiGate&W2 DJAKOVO CRLNet.108 http://djakovo.hr9A3XK>APMI06,WIDE2-2,qAR,E79XZA-10:!4522.10N/01814.60EIiGate&W2 DJAKOVO CRLNet.108 http://djakovo.hr
2019-11-21 05:37:229A3XK>APMI06,WIDE1-1,qAR,E79XZA-10:T#021,075,045,014,24223,083,00000000
2019-11-21 05:33:229A3XK>APMI06,TCPIP*,qAC,APRSFI-I1:T#020,077,044,016,24215,083,00000000
2019-11-21 05:32:489A3XK>BEACON,WIDE1-1,qAR,E79XZA-10:Power 9W Gain 3dB Height 240m Ant omni
2019-11-21 05:28:229A3XK>APMI06,TCPIP*,qAC,APRSFI-I1:T#019,072,043,017,24230,083,00000000
2019-11-21 05:23:229A3XK>APMI06,TCPIP*,qAC,APRSFI-I1:T#018,053,042,010,24226,083,00000000
2019-11-21 05:22:489A3XK>BEACON,WIDE1-1,qAR,E79XZA-10:Power 9W Gain 3dB Height 240m Ant omni
2019-11-21 05:18:229A3XK>APMI06,TCPIP*,qAC,APRSFI-I1:T#017,062,042,013,24230,083,00000000
2019-11-21 05:13:229A3XK>APMI06,TCPIP*,qAC,APRSFI-I1:T#016,091,043,021,24234,083,00000000
2019-11-21 05:12:479A3XK>BEACON,TCPIP*,qAC,APRSFI-I1:Power 9W Gain 3dB Height 240m Ant omni
2019-11-21 05:12:379A3XK>BEACON,WIDE1-1,qAR,E79XZA-10:CRLNet.108 - SysOp 9a3XK & 9a7kxp-Internet via DJWIRELES http://djw.hr/
2019-11-21 05:12:329A3XK>APMI06,TCPIP*,qAC,APRSFI-I1:>http://crlnet.it - WX3IN1 Plus 2.0 - v1.13 - 2.9C - 11.9V
2019-11-21 05:12:27!4522.10N/01814.60EIiGate&W2 DJAKOVO CRLNet.108 http://djakovo.hr9A3XK>APMI06,TCPIP*,qAC,APRSFI-I1:!4522.10N/01814.60EIiGate&W2 DJAKOVO CRLNet.108 http://djakovo.hr
2019-11-21 05:08:229A3XK>APMI06,WIDE1-1,qAR,E79XZA-10:T#014,075,042,015,24241,083,00000000
2019-11-21 05:08:229A3XK>APMI06,TCPIP*,qAC,APRSFI-I1:T#015,075,042,015,24241,083,00000000
2019-11-21 05:03:229A3XK>APMI06,TCPIP*,qAC,APRSFI-I1:T#013,068,040,010,24239,083,00000000
2019-11-21 05:02:489A3XK>BEACON,WIDE1-1,qAR,E79XZA-10:Power 9W Gain 3dB Height 240m Ant omni
2019-11-21 04:58:229A3XK>APMI06,TCPIP*,qAC,APRSFI-I1:T#012,062,041,011,24250,083,00000000
2019-11-21 04:53:229A3XK>APMI06,TCPIP*,qAC,APRSFI-I1:T#011,060,043,016,24261,083,00000000
2019-11-21 04:52:489A3XK>BEACON,WIDE1-1,qAR,E79XZA-10:Power 9W Gain 3dB Height 240m Ant omni
2019-11-21 04:48:229A3XK>APMI06,TCPIP*,qAC,APRSFI-I1:T#010,065,043,014,24262,083,00000000
2019-11-21 04:47:28!4522.10N/01814.60EIiGate&W2 DJAKOVO CRLNet.108 http://djakovo.hr9A3XK>APMI06,WIDE2-2,qAR,E79XZA-10:!4522.10N/01814.60EIiGate&W2 DJAKOVO CRLNet.108 http://djakovo.hr
2019-11-21 04:43:229A3XK>APMI06,TCPIP*,qAC,APRSFI-I1:T#009,069,043,013,24258,083,00000000
2019-11-21 04:42:479A3XK>BEACON,TCPIP*,qAC,APRSFI-I1:Power 9W Gain 3dB Height 240m Ant omni
2019-11-21 04:42:389A3XK>BEACON,WIDE1-1,qAR,E79XZA-10:CRLNet.108 - SysOp 9a3XK & 9a7kxp-Internet via DJWIRELES http://djw.hr/
2019-11-21 04:42:329A3XK>APMI06,TCPIP*,qAC,APRSFI-I1:>http://crlnet.it - WX3IN1 Plus 2.0 - v1.13 - 2.9C - 11.9V
2019-11-21 04:42:28!4522.10N/01814.60EIiGate&W2 DJAKOVO CRLNet.108 http://djakovo.hr9A3XK>APMI06,TCPIP*,qAC,APRSFI-I1:!4522.10N/01814.60EIiGate&W2 DJAKOVO CRLNet.108 http://djakovo.hr
2019-11-21 04:39:229A3XK>APMI06,WIDE1-1,qAR,E79XZA-10:T#008,056,044,009,24265,083,00000000
2019-11-21 04:38:229A3XK>APMI06,TCPIP*,qAC,APRSFI-I1:T#007,056,044,010,24267,083,00000000
2019-11-21 04:33:229A3XK>APMI06,TCPIP*,qAC,APRSFI-I1:T#006,054,044,012,24273,083,00000000
2019-11-21 04:32:499A3XK>BEACON,YU0XFG-1*,WIDE1*,qAR,HG8PBJ-10:Power 9W Gain 3dB Height 240m Ant omni
2019-11-21 04:28:229A3XK>APMI06,TCPIP*,qAC,APRSFI-I1:T#005,068,047,015,24280,083,00000000
2019-11-21 04:23:229A3XK>APMI06,TCPIP*,qAC,APRSFI-I1:T#004,062,048,018,24277,083,00000000
2019-11-21 04:22:489A3XK>BEACON,WIDE1-1,qAR,E79XZA-10:Power 9W Gain 3dB Height 240m Ant omni
2019-11-21 04:22:28!4522.10N/01814.60EIiGate&W2 DJAKOVO CRLNet.108 http://djakovo.hr9A3XK>APMI06,WIDE2-2,qAR,E79XZA-10:!4522.10N/01814.60EIiGate&W2 DJAKOVO CRLNet.108 http://djakovo.hr
2019-11-21 04:18:229A3XK>APMI06,TCPIP*,qAC,APRSFI-I1:T#003,058,048,016,24282,083,00000000
2019-11-21 04:13:229A3XK>APMI06,TCPIP*,qAC,APRSFI-I1:T#002,063,047,016,24273,083,00000000
2019-11-21 04:12:479A3XK>BEACON,TCPIP*,qAC,APRSFI-I1:Power 9W Gain 3dB Height 240m Ant omni
2019-11-21 04:12:389A3XK>BEACON,WIDE1-1,qAR,E79XZA-10:CRLNet.108 - SysOp 9a3XK & 9a7kxp-Internet via DJWIRELES http://djw.hr/
2019-11-21 04:12:329A3XK>APMI06,TCPIP*,qAC,APRSFI-I1:>http://crlnet.it - WX3IN1 Plus 2.0 - v1.13 - 2.8C - 11.9V
2019-11-21 04:12:27!4522.10N/01814.60EIiGate&W2 DJAKOVO CRLNet.108 http://djakovo.hr9A3XK>APMI06,TCPIP*,qAC,APRSFI-I1:!4522.10N/01814.60EIiGate&W2 DJAKOVO CRLNet.108 http://djakovo.hr
2019-11-21 04:10:229A3XK>APMI06,WIDE1-1,qAR,E79XZA-10:T#001,071,048,018,24282,083,00000000
2019-11-21 04:08:229A3XK>APMI06,TCPIP*,qAC,APRSFI-I1:T#000,066,048,012,24276,083,00000000
2019-11-21 04:03:229A3XK>APMI06,TCPIP*,qAC,APRSFI-I1:T#255,081,048,011,24276,083,00000000
2019-11-21 04:02:489A3XK>BEACON,WIDE1-1,qAR,E79XZA-10:Power 9W Gain 3dB Height 240m Ant omni
2019-11-21 03:58:229A3XK>APMI06,TCPIP*,qAC,APRSFI-I1:T#254,089,048,012,24284,083,00000000
2019-11-21 03:57:28!4522.10N/01814.60EIiGate&W2 DJAKOVO CRLNet.108 http://djakovo.hr9A3XK>APMI06,WIDE2-2,qAR,E79XZA-10:!4522.10N/01814.60EIiGate&W2 DJAKOVO CRLNet.108 http://djakovo.hr
2019-11-21 03:53:229A3XK>APMI06,TCPIP*,qAC,APRSFI-I1:T#253,070,047,010,24303,083,00000000
2019-11-21 03:52:489A3XK>BEACON,WIDE1-1,qAR,E79XZA-10:Power 9W Gain 3dB Height 240m Ant omni
2019-11-21 03:48:229A3XK>APMI06,TCPIP*,qAC,APRSFI-I1:T#252,078,048,013,24314,083,00000000
2019-11-21 03:43:239A3XK>APMI06,TCPIP*,qAC,APRSFI-I1:T#251,069,046,013,24325,083,00000000
2019-11-21 03:42:479A3XK>BEACON,TCPIP*,qAC,APRSFI-I1:Power 9W Gain 3dB Height 240m Ant omni
2019-11-21 03:42:389A3XK>BEACON,WIDE1-1,qAR,E79XZA-10:CRLNet.108 - SysOp 9a3XK & 9a7kxp-Internet via DJWIRELES http://djw.hr/
2019-11-21 03:42:329A3XK>APMI06,TCPIP*,qAC,APRSFI-I1:>http://crlnet.it - WX3IN1 Plus 2.0 - v1.13 - 3.0C - 11.9V
2019-11-21 03:42:27!4522.10N/01814.60EIiGate&W2 DJAKOVO CRLNet.108 http://djakovo.hr9A3XK>APMI06,TCPIP*,qAC,APRSFI-I1:!4522.10N/01814.60EIiGate&W2 DJAKOVO CRLNet.108 http://djakovo.hr
2019-11-21 03:41:239A3XK>APMI06,WIDE1-1,qAR,E79XZA-10:T#250,073,047,013,24327,083,00000000
2019-11-21 03:38:229A3XK>APMI06,TCPIP*,qAC,APRSFI-I1:T#249,082,049,021,24333,083,00000000
2019-11-21 03:33:229A3XK>APMI06,TCPIP*,qAC,APRSFI-I1:T#248,090,049,021,24337,083,00000000
2019-11-21 03:32:489A3XK>BEACON,WIDE1-1,qAR,E79XZA-10:Power 9W Gain 3dB Height 240m Ant omni
2019-11-21 03:32:28!4522.10N/01814.60EIiGate&W2 DJAKOVO CRLNet.108 http://djakovo.hr9A3XK>APMI06,WIDE2-2,qAR,E79XZA-10:!4522.10N/01814.60EIiGate&W2 DJAKOVO CRLNet.108 http://djakovo.hr
2019-11-21 03:28:229A3XK>APMI06,TCPIP*,qAC,APRSFI-I1:T#247,076,047,012,24334,083,00000000
2019-11-21 03:23:229A3XK>APMI06,TCPIP*,qAC,APRSFI-I1:T#246,058,047,011,24345,083,00000000
2019-11-21 03:22:489A3XK>BEACON,WIDE1-1,qAR,E79XZA-10:Power 9W Gain 3dB Height 240m Ant omni
2019-11-21 03:18:229A3XK>APMI06,TCPIP*,qAC,APRSFI-I1:T#245,061,047,013,24347,083,00000000
2019-11-21 03:13:229A3XK>APMI06,TCPIP*,qAC,APRSFI-I1:T#244,074,048,020,24355,083,00000000
2019-11-21 03:12:479A3XK>BEACON,TCPIP*,qAC,APRSFI-I1:Power 9W Gain 3dB Height 240m Ant omni
2019-11-21 03:12:389A3XK>BEACON,WIDE1-1,qAR,E79XZA-10:CRLNet.108 - SysOp 9a3XK & 9a7kxp-Internet via DJWIRELES http://djw.hr/
2019-11-21 03:12:329A3XK>APMI06,TCPIP*,qAC,APRSFI-I1:>http://crlnet.it - WX3IN1 Plus 2.0 - v1.13 - 2.8C - 11.9V
2019-11-21 03:12:27!4522.10N/01814.60EIiGate&W2 DJAKOVO CRLNet.108 http://djakovo.hr9A3XK>APMI06,TCPIP*,qAC,APRSFI-I1:!4522.10N/01814.60EIiGate&W2 DJAKOVO CRLNet.108 http://djakovo.hr
2019-11-21 03:12:229A3XK>APMI06,WIDE1-1,qAR,E79XZA-10:T#243,071,048,019,24361,083,00000000
2019-11-21 03:08:229A3XK>APMI06,TCPIP*,qAC,APRSFI-I1:T#242,069,049,014,24354,083,00000000
2019-11-21 03:07:28!4522.10N/01814.60EIiGate&W2 DJAKOVO CRLNet.108 http://djakovo.hr9A3XK>APMI06,WIDE2-2,qAR,E79XZA-10:!4522.10N/01814.60EIiGate&W2 DJAKOVO CRLNet.108 http://djakovo.hr
2019-11-21 03:03:229A3XK>APMI06,TCPIP*,qAC,APRSFI-I1:T#241,072,047,011,24355,083,00000000
2019-11-21 03:02:489A3XK>BEACON,WIDE1-1,qAR,E79XZA-10:Power 9W Gain 3dB Height 240m Ant omni
2019-11-21 02:58:229A3XK>APMI06,TCPIP*,qAC,APRSFI-I1:T#240,079,046,017,24366,083,00000000
2019-11-21 02:53:229A3XK>APMI06,TCPIP*,qAC,APRSFI-I1:T#239,069,046,017,24375,083,00000000
2019-11-21 02:52:489A3XK>BEACON,WIDE1-1,qAR,E79XZA-10:Power 9W Gain 3dB Height 240m Ant omni
2019-11-21 02:48:229A3XK>APMI06,TCPIP*,qAC,APRSFI-I1:T#238,095,045,023,24372,083,00000000
2019-11-21 02:43:239A3XK>APMI06,TCPIP*,qAC,APRSFI-I1:T#237,099,044,028,24377,083,00000000
2019-11-21 02:43:239A3XK>APMI06,WIDE1-1,qAR,E79XZA-10:T#236,099,044,028,24377,083,00000000
2019-11-21 02:42:489A3XK>BEACON,TCPIP*,qAC,APRSFI-I1:Power 9W Gain 3dB Height 240m Ant omni
2019-11-21 02:42:389A3XK>BEACON,WIDE1-1,qAR,E79XZA-10:CRLNet.108 - SysOp 9a3XK & 9a7kxp-Internet via DJWIRELES http://djw.hr/
2019-11-21 02:42:329A3XK>APMI06,TCPIP*,qAC,APRSFI-I1:>http://crlnet.it - WX3IN1 Plus 2.0 - v1.13 - 2.8C - 11.9V
2019-11-21 02:42:27!4522.10N/01814.60EIiGate&W2 DJAKOVO CRLNet.108 http://djakovo.hr9A3XK>APMI06,TCPIP*,qAC,APRSFI-I1:!4522.10N/01814.60EIiGate&W2 DJAKOVO CRLNet.108 http://djakovo.hr
2019-11-21 02:38:229A3XK>APMI06,TCPIP*,qAC,APRSFI-I1:T#235,065,043,014,24375,083,00000000
2019-11-21 02:33:229A3XK>APMI06,TCPIP*,qAC,APRSFI-I1:T#234,063,044,012,24373,083,00000000
2019-11-21 02:28:229A3XK>APMI06,TCPIP*,qAC,APRSFI-I1:T#233,071,046,015,24383,083,00000000
2019-11-21 02:23:229A3XK>APMI06,TCPIP*,qAC,APRSFI-I1:T#232,072,047,015,24388,083,00000000
2019-11-21 02:22:489A3XK>BEACON,WIDE1-1,qAR,E79XZA-10:Power 9W Gain 3dB Height 240m Ant omni
2019-11-21 02:18:229A3XK>APMI06,TCPIP*,qAC,APRSFI-I1:T#231,084,045,019,24392,083,00000000
2019-11-21 02:14:239A3XK>APMI06,WIDE1-1,qAR,E79XZA-10:T#230,070,046,015,24395,083,00000000
2019-11-21 02:13:229A3XK>APMI06,TCPIP*,qAC,APRSFI-I1:T#229,063,045,015,24397,083,00000000
2019-11-21 02:13:149A3XK>APMI06,WIDE1-1,qAR,E79XZA-10::9A3XK :EQNS.0,1,0,0,10,0,0,1,0,0,0.001,0,0,1,0
2019-11-21 02:13:149A3XK>APMI06,WIDE1-1,qAR,E79XZA-10::9A3XK :BITS.11111111,DJAKOVO 5' Stats.
2019-11-21 02:13:139A3XK>APMI06,WIDE1-1,qAR,E79XZA-10::9A3XK :PARM.Rx10m,Rx1h,Dg10m,DgR,Eff,O1,O2,O3,O4,I1,I2,I3,I4
2019-11-21 02:13:139A3XK>APMI06,WIDE1-1,qAR,E79XZA-10::9A3XK :UNIT.Pkt,Pkt,Pkt,Pcnt,Pcnt,On,On,On,On,Hi,Hi,Hi,Hi
2019-11-21 02:12:479A3XK>BEACON,TCPIP*,qAC,APRSFI-I1:Power 9W Gain 3dB Height 240m Ant omni
2019-11-21 02:12:389A3XK>BEACON,WIDE1-1,qAR,E79XZA-10:CRLNet.108 - SysOp 9a3XK & 9a7kxp-Internet via DJWIRELES http://djw.hr/
2019-11-21 02:12:329A3XK>APMI06,TCPIP*,qAC,APRSFI-I1:>http://crlnet.it - WX3IN1 Plus 2.0 - v1.13 - 2.8C - 11.9V
2019-11-21 02:12:27!4522.10N/01814.60EIiGate&W2 DJAKOVO CRLNet.108 http://djakovo.hr9A3XK>APMI06,TCPIP*,qAC,APRSFI-I1:!4522.10N/01814.60EIiGate&W2 DJAKOVO CRLNet.108 http://djakovo.hr
2019-11-21 02:08:229A3XK>APMI06,TCPIP*,qAC,APRSFI-I1:T#228,047,044,010,24400,083,00000000
2019-11-21 02:03:239A3XK>APMI06,TCPIP*,qAC,APRSFI-I1:T#227,052,045,010,24405,083,00000000
2019-11-21 02:02:489A3XK>BEACON,WIDE1-1,qAR,E79XZA-10:Power 9W Gain 3dB Height 240m Ant omni
2019-11-21 01:58:229A3XK>APMI06,TCPIP*,qAC,APRSFI-I1:T#226,065,047,011,24407,083,00000000
2019-11-21 01:53:229A3XK>APMI06,TCPIP*,qAC,APRSFI-I1:T#225,060,048,012,24417,083,00000000
2019-11-21 01:52:489A3XK>BEACON,WIDE1-1,qAR,E79XZA-10:Power 9W Gain 3dB Height 240m Ant omni
2019-11-21 01:52:28!4522.10N/01814.60EIiGate&W2 DJAKOVO CRLNet.108 http://djakovo.hr9A3XK>APMI06,WIDE2-2,qAR,E79XZA-10:!4522.10N/01814.60EIiGate&W2 DJAKOVO CRLNet.108 http://djakovo.hr
2019-11-21 01:48:239A3XK>APMI06,TCPIP*,qAC,APRSFI-I1:T#224,074,049,012,24424,083,00000000
2019-11-21 01:43:229A3XK>APMI06,TCPIP*,qAC,APRSFI-I1:T#222,096,049,014,24428,083,00000000
2019-11-21 01:42:479A3XK>BEACON,TCPIP*,qAC,APRSFI-I1:Power 9W Gain 3dB Height 240m Ant omni
2019-11-21 01:42:389A3XK>BEACON,WIDE1-1,qAR,E79XZA-10:CRLNet.108 - SysOp 9a3XK & 9a7kxp-Internet via DJWIRELES http://djw.hr/
2019-11-21 01:42:329A3XK>APMI06,TCPIP*,qAC,APRSFI-I1:>http://crlnet.it - WX3IN1 Plus 2.0 - v1.13 - 2.8C - 11.9V
2019-11-21 01:42:27!4522.10N/01814.60EIiGate&W2 DJAKOVO CRLNet.108 http://djakovo.hr9A3XK>APMI06,TCPIP*,qAC,APRSFI-I1:!4522.10N/01814.60EIiGate&W2 DJAKOVO CRLNet.108 http://djakovo.hr
2019-11-21 01:38:239A3XK>APMI06,TCPIP*,qAC,APRSFI-I1:T#221,093,050,012,24442,083,00000000
2019-11-21 01:33:229A3XK>APMI06,TCPIP*,qAC,APRSFI-I1:T#220,085,049,014,24461,082,00000000
2019-11-21 01:32:489A3XK>BEACON,WIDE1-1,qAR,E79XZA-10:Power 9W Gain 3dB Height 240m Ant omni
2019-11-21 01:28:239A3XK>APMI06,TCPIP*,qAC,APRSFI-I1:T#219,063,048,011,24472,082,00000000
2019-11-21 01:27:28!4522.10N/01814.60EIiGate&W2 DJAKOVO CRLNet.108 http://djakovo.hr9A3XK>APMI06,WIDE2-2,qAR,E79XZA-10:!4522.10N/01814.60EIiGate&W2 DJAKOVO CRLNet.108 http://djakovo.hr
2019-11-21 01:23:229A3XK>APMI06,TCPIP*,qAC,APRSFI-I1:T#218,060,048,014,24481,082,00000000
2019-11-21 01:22:489A3XK>BEACON,WIDE1-1,qAR,E79XZA-10:Power 9W Gain 3dB Height 240m Ant omni
2019-11-21 01:18:229A3XK>APMI06,TCPIP*,qAC,APRSFI-I1:T#217,060,049,012,24484,082,00000000
2019-11-21 01:16:239A3XK>APMI06,WIDE1-1,qAR,E79XZA-10:T#216,060,049,011,24486,082,00000000
2019-11-21 01:13:229A3XK>APMI06,TCPIP*,qAC,APRSFI-I1:T#215,060,050,008,24486,082,00000000
2019-11-21 01:12:479A3XK>BEACON,TCPIP*,qAC,APRSFI-I1:Power 9W Gain 3dB Height 240m Ant omni
2019-11-21 01:12:389A3XK>BEACON,WIDE1-1,qAR,E79XZA-10:CRLNet.108 - SysOp 9a3XK & 9a7kxp-Internet via DJWIRELES http://djw.hr/
2019-11-21 01:12:329A3XK>APMI06,TCPIP*,qAC,APRSFI-I1:>http://crlnet.it - WX3IN1 Plus 2.0 - v1.13 - 2.8C - 11.9V
2019-11-21 01:12:27!4522.10N/01814.60EIiGate&W2 DJAKOVO CRLNet.108 http://djakovo.hr9A3XK>APMI06,TCPIP*,qAC,APRSFI-I1:!4522.10N/01814.60EIiGate&W2 DJAKOVO CRLNet.108 http://djakovo.hr
2019-11-21 01:08:229A3XK>APMI06,TCPIP*,qAC,APRSFI-I1:T#214,079,052,012,24493,082,00000000
2019-11-21 01:03:229A3XK>APMI06,TCPIP*,qAC,APRSFI-I1:T#213,078,053,016,24508,082,00000000
2019-11-21 01:02:489A3XK>BEACON,WIDE1-1,qAR,E79XZA-10:Power 9W Gain 3dB Height 240m Ant omni
2019-11-21 01:02:28!4522.10N/01814.60EIiGate&W2 DJAKOVO CRLNet.108 http://djakovo.hr9A3XK>APMI06,WIDE2-2,qAR,E79XZA-10:!4522.10N/01814.60EIiGate&W2 DJAKOVO CRLNet.108 http://djakovo.hr
2019-11-21 00:58:229A3XK>APMI06,TCPIP*,qAC,APRSFI-I1:T#212,077,051,013,24516,082,00000000
2019-11-21 00:53:229A3XK>APMI06,TCPIP*,qAC,APRSFI-I1:T#211,080,053,012,24521,082,00000000
2019-11-21 00:52:489A3XK>BEACON,WIDE1-1,qAR,E79XZA-10:Power 9W Gain 3dB Height 240m Ant omni
2019-11-21 00:48:229A3XK>APMI06,TCPIP*,qAC,APRSFI-I1:T#210,086,052,008,24536,082,00000000
2019-11-21 00:47:239A3XK>APMI06,WIDE1-1,qAR,E79XZA-10:T#209,088,052,007,24539,082,00000000
2019-11-21 00:43:229A3XK>APMI06,TCPIP*,qAC,APRSFI-I1:T#208,089,052,010,24548,082,00000000
2019-11-21 00:42:479A3XK>BEACON,TCPIP*,qAC,APRSFI-I1:Power 9W Gain 3dB Height 240m Ant omni
2019-11-21 00:42:389A3XK>BEACON,WIDE1-1,qAR,E79XZA-10:CRLNet.108 - SysOp 9a3XK & 9a7kxp-Internet via DJWIRELES http://djw.hr/
2019-11-21 00:42:329A3XK>APMI06,TCPIP*,qAC,APRSFI-I1:>http://crlnet.it - WX3IN1 Plus 2.0 - v1.13 - 3.0C - 11.9V
2019-11-21 00:42:27!4522.10N/01814.60EIiGate&W2 DJAKOVO CRLNet.108 http://djakovo.hr9A3XK>APMI06,TCPIP*,qAC,APRSFI-I1:!4522.10N/01814.60EIiGate&W2 DJAKOVO CRLNet.108 http://djakovo.hr
2019-11-21 00:38:229A3XK>APMI06,TCPIP*,qAC,APRSFI-I1:T#207,073,051,012,24576,082,00000000
2019-11-21 00:37:28!4522.10N/01814.60EIiGate&W2 DJAKOVO CRLNet.108 http://djakovo.hr9A3XK>APMI06,WIDE2-2,qAR,E79XZA-10:!4522.10N/01814.60EIiGate&W2 DJAKOVO CRLNet.108 http://djakovo.hr
2019-11-21 00:33:229A3XK>APMI06,TCPIP*,qAC,APRSFI-I1:T#206,074,052,010,24587,082,00000000
2019-11-21 00:32:489A3XK>BEACON,WIDE1-1,qAR,E79XZA-10:Power 9W Gain 3dB Height 240m Ant omni
2019-11-21 00:28:229A3XK>APMI06,TCPIP*,qAC,APRSFI-I1:T#205,078,051,011,24600,082,00000000
2019-11-21 00:23:239A3XK>APMI06,TCPIP*,qAC,APRSFI-I1:T#204,079,050,013,24614,082,00000000
2019-11-21 00:22:489A3XK>BEACON,WIDE1-1,qAR,E79XZA-10:Power 9W Gain 3dB Height 240m Ant omni
2019-11-21 00:18:239A3XK>APMI06,WIDE1-1,qAR,E79XZA-10:T#202,085,050,023,24632,082,00000000
2019-11-21 00:18:229A3XK>APMI06,TCPIP*,qAC,APRSFI-I1:T#203,085,050,023,24632,082,00000000
2019-11-21 00:13:229A3XK>APMI06,TCPIP*,qAC,APRSFI-I1:T#201,086,050,026,24638,082,00000000
2019-11-21 00:12:479A3XK>BEACON,TCPIP*,qAC,APRSFI-I1:Power 9W Gain 3dB Height 240m Ant omni
2019-11-21 00:12:389A3XK>BEACON,WIDE1-1,qAR,E79XZA-10:CRLNet.108 - SysOp 9a3XK & 9a7kxp-Internet via DJWIRELES http://djw.hr/
2019-11-21 00:12:329A3XK>APMI06,TCPIP*,qAC,APRSFI-I1:>http://crlnet.it - WX3IN1 Plus 2.0 - v1.13 - 3.0C - 11.9V
2019-11-21 00:12:28!4522.10N/01814.60EIiGate&W2 DJAKOVO CRLNet.108 http://djakovo.hr9A3XK>APMI06,TCPIP*,qAC,APRSFI-I1:!4522.10N/01814.60EIiGate&W2 DJAKOVO CRLNet.108 http://djakovo.hr
2019-11-21 00:08:229A3XK>APMI06,TCPIP*,qAC,APRSFI-I1:T#200,075,049,014,24631,082,00000000
2019-11-21 00:03:229A3XK>APMI06,TCPIP*,qAC,APRSFI-I1:T#199,084,048,016,24628,082,00000000
2019-11-21 00:02:489A3XK>BEACON,WIDE1-1,qAR,E79XZA-10:Power 9W Gain 3dB Height 240m Ant omni